Time,TemperatureF,DewpointF,PressureIn,WindDirection,WindDirectionDegrees,WindSpeedMPH,WindSpeedGustMPH,Humidity,HourlyPrecipIn,Conditions,Clouds,dailyrainin,SoftwareType,DateUTC
2013-04-21 00:03:00,39.4,27.0,30.18,SE,135,0.0,0.0,61,0.00,,,0.00,WUHU216HW,2013-04-21 04:03:00,
2013-04-21 00:08:00,39.2,26.8,30.18,SE,135,0.0,0.0,61,0.00,,,0.00,WUHU216HW,2013-04-21 04:08:00,
2013-04-21 00:13:00,39.1,26.6,30.19,SE,135,0.0,0.0,61,0.00,,,0.00,WUHU216HW,2013-04-21 04:13:00,
2013-04-21 00:18:00,38.9,26.6,30.18,SE,135,0.0,0.0,61,0.00,,,0.00,WUHU216HW,2013-04-21 04:18:00,
2013-04-21 00:23:00,38.7,26.4,30.19,SE,135,0.0,0.0,61,0.00,,,0.00,WUHU216HW,2013-04-21 04:23:00,
2013-04-21 00:28:00,38.5,26.6,30.19,SE,135,0.0,0.0,62,0.00,,,0.00,WUHU216HW,2013-04-21 04:28:00,
2013-04-21 00:33:00,38.5,26.6,30.20,SE,135,0.0,0.0,62,0.00,,,0.00,WUHU216HW,2013-04-21 04:33:00,
2013-04-21 00:38:00,38.3,26.4,30.19,SE,135,0.0,0.0,62,0.00,,,0.00,WUHU216HW,2013-04-21 04:38:00,
2013-04-21 00:43:00,38.0,26.1,30.19,SE,135,0.0,0.0,62,0.00,,,0.00,WUHU216HW,2013-04-21 04:43:00,
2013-04-21 00:48:00,37.8,25.9,30.18,SE,135,0.0,0.0,62,0.00,,,0.00,WUHU216HW,2013-04-21 04:48:00,
2013-04-21 00:53:00,37.8,25.9,30.18,SE,135,0.0,0.0,62,0.00,,,0.00,WUHU216HW,2013-04-21 04:53:00,
2013-04-21 00:58:00,37.8,25.9,30.19,SE,135,0.0,0.0,62,0.00,,,0.00,WUHU216HW,2013-04-21 04:58:00,
2013-04-21 01:03:00,37.6,25.4,30.19,SE,135,0.0,0.0,61,0.00,,,0.00,WUHU216HW,2013-04-21 05:03:00,
2013-04-21 01:08:00,37.4,25.2,30.19,SE,135,0.0,0.0,61,0.00,,,0.00,WUHU216HW,2013-04-21 05:08:00,
2013-04-21 01:13:00,37.1,24.9,30.19,SE,135,0.0,0.0,61,0.00,,,0.00,WUHU216HW,2013-04-21 05:13:00,
2013-04-21 01:18:00,37.1,24.9,30.18,SE,135,0.0,0.0,61,0.00,,,0.00,WUHU216HW,2013-04-21 05:18:00,
2013-04-21 01:23:00,36.9,24.8,30.20,SE,135,0.0,0.0,61,0.00,,,0.00,WUHU216HW,2013-04-21 05:23:00,
2013-04-21 01:28:00,36.7,24.6,30.18,SE,135,0.0,0.0,61,0.00,,,0.00,WUHU216HW,2013-04-21 05:28:00,
2013-04-21 01:33:00,36.5,24.4,30.19,SE,135,0.0,0.0,61,0.00,,,0.00,WUHU216HW,2013-04-21 05:33:00,
2013-04-21 01:38:00,36.4,24.2,30.18,SE,135,0.0,0.0,61,0.00,,,0.00,WUHU216HW,2013-04-21 05:38:00,
2013-04-21 01:43:00,36.4,24.2,30.19,SE,135,0.0,0.0,61,0.00,,,0.00,WUHU216HW,2013-04-21 05:43:00,
2013-04-21 01:48:00,36.2,24.0,30.19,SE,135,0.0,0.0,61,0.00,,,0.00,WUHU216HW,2013-04-21 05:48:00,
2013-04-21 01:53:00,36.2,24.0,30.18,SE,135,0.0,0.0,61,0.00,,,0.00,WUHU216HW,2013-04-21 05:53:00,
2013-04-21 01:58:00,36.0,24.0,30.19,SE,135,0.0,0.0,61,0.00,,,0.00,WUHU216HW,2013-04-21 05:58:00,
2013-04-21 02:03:00,35.6,23.6,30.19,SE,135,0.0,0.0,61,0.00,,,0.00,WUHU216HW,2013-04-21 06:03:00,
2013-04-21 02:08:00,35.5,23.4,30.18,SE,135,0.0,0.0,61,0.00,,,0.00,WUHU216HW,2013-04-21 06:08:00,
2013-04-21 02:13:00,35.3,23.2,30.19,SE,135,0.0,0.4,61,0.00,,,0.00,WUHU216HW,2013-04-21 06:13:00,
2013-04-21 02:18:00,35.3,23.2,30.19,SE,135,0.0,0.4,61,0.00,,,0.00,WUHU216HW,2013-04-21 06:18:00,
2013-04-21 02:23:00,35.1,23.0,30.18,SE,135,0.0,0.0,61,0.00,,,0.00,WUHU216HW,2013-04-21 06:23:00,
2013-04-21 02:28:00,35.1,23.0,30.18,SE,135,0.0,0.0,61,0.00,,,0.00,WUHU216HW,2013-04-21 06:28:00,
2013-04-21 02:33:00,34.9,22.9,30.19,SE,135,0.0,0.0,61,0.00,,,0.00,WUHU216HW,2013-04-21 06:33:00,
2013-04-21 02:38:00,34.9,22.9,30.18,SE,135,0.0,0.0,61,0.00,,,0.00,WUHU216HW,2013-04-21 06:38:00,
2013-04-21 02:43:00,34.9,22.9,30.18,SE,135,0.0,0.0,61,0.00,,,0.00,WUHU216HW,2013-04-21 06:43:00,
2013-04-21 02:48:00,34.7,22.7,30.19,SE,135,0.0,0.0,61,0.00,,,0.00,WUHU216HW,2013-04-21 06:48:00,
2013-04-21 02:53:00,34.6,22.1,30.18,SE,135,0.0,0.0,60,0.00,,,0.00,WUHU216HW,2013-04-21 06:53:00,
2013-04-21 02:58:00,34.4,22.0,30.18,SE,135,0.0,0.0,60,0.00,,,0.00,WUHU216HW,2013-04-21 06:58:00,
2013-04-21 03:03:00,34.2,21.8,30.18,SE,135,0.0,0.0,60,0.00,,,0.00,WUHU216HW,2013-04-21 07:03:00,
2013-04-21 03:08:00,34.2,21.8,30.19,SE,135,0.0,0.0,60,0.00,,,0.00,WUHU216HW,2013-04-21 07:08:00,
2013-04-21 03:13:00,34.2,21.8,30.20,SE,135,0.0,0.0,60,0.00,,,0.00,WUHU216HW,2013-04-21 07:13:00,
2013-04-21 03:18:00,34.2,21.8,30.19,SE,135,0.0,0.0,60,0.00,,,0.00,WUHU216HW,2013-04-21 07:18:00,
2013-04-21 03:23:00,34.2,21.8,30.19,SE,135,0.0,0.0,60,0.00,,,0.00,WUHU216HW,2013-04-21 07:23:00,
2013-04-21 03:28:00,34.2,21.8,30.19,SE,135,0.0,0.0,60,0.00,,,0.00,WUHU216HW,2013-04-21 07:28:00,
2013-04-21 03:33:00,34.2,21.3,30.18,SE,135,0.0,0.0,59,0.00,,,0.00,WUHU216HW,2013-04-21 07:33:00,
2013-04-21 03:38:00,34.2,21.3,30.18,SE,135,0.0,0.0,59,0.00,,,0.00,WUHU216HW,2013-04-21 07:38:00,
2013-04-21 03:43:00,34.2,21.3,30.18,SE,135,0.0,0.0,59,0.00,,,0.00,WUHU216HW,2013-04-21 07:43:00,
2013-04-21 03:48:00,34.2,21.3,30.20,SE,135,0.0,0.0,59,0.00,,,0.00,WUHU216HW,2013-04-21 07:48:00,
2013-04-21 03:53:00,34.2,21.3,30.19,SE,135,0.0,0.0,59,0.00,,,0.00,WUHU216HW,2013-04-21 07:53:00,
2013-04-21 03:58:00,34.2,21.3,30.19,SE,135,0.0,0.0,59,0.00,,,0.00,WUHU216HW,2013-04-21 07:58:00,
2013-04-21 04:03:00,34.2,21.3,30.19,SE,135,0.0,0.0,59,0.00,,,0.00,WUHU216HW,2013-04-21 08:03:00,
2013-04-21 04:08:00,34.2,20.9,30.20,SE,135,0.0,0.0,58,0.00,,,0.00,WUHU216HW,2013-04-21 08:08:00,
2013-04-21 04:13:00,34.2,20.9,30.19,SE,135,0.0,0.0,58,0.00,,,0.00,WUHU216HW,2013-04-21 08:13:00,
2013-04-21 04:18:00,34.4,21.1,30.19,SE,135,0.0,0.0,58,0.00,,,0.00,WUHU216HW,2013-04-21 08:18:00,
2013-04-21 04:23:00,34.4,21.1,30.19,SE,135,0.0,0.0,58,0.00,,,0.00,WUHU216HW,2013-04-21 08:23:00,
2013-04-21 04:28:00,34.4,21.5,30.18,SE,135,0.0,0.0,59,0.00,,,0.00,WUHU216HW,2013-04-21 08:28:00,
2013-04-21 04:33:00,34.6,21.7,30.20,SE,135,0.0,0.0,59,0.00,,,0.00,WUHU216HW,2013-04-21 08:33:00,
2013-04-21 04:38:00,34.9,22.1,30.20,SE,135,0.0,0.0,59,0.00,,,0.00,WUHU216HW,2013-04-21 08:38:00,
2013-04-21 04:43:00,34.9,22.5,30.20,SE,135,0.0,0.0,60,0.00,,,0.00,WUHU216HW,2013-04-21 08:43:00,
2013-04-21 04:48:00,35.1,22.7,30.20,SE,135,0.0,0.0,60,0.00,,,0.00,WUHU216HW,2013-04-21 08:48:00,
2013-04-21 04:53:00,35.1,22.7,30.20,SE,135,0.0,0.0,60,0.00,,,0.00,WUHU216HW,2013-04-21 08:53:00,
2013-04-21 04:58:00,35.1,22.2,30.20,SE,135,0.0,0.0,59,0.00,,,0.00,WUHU216HW,2013-04-21 08:58:00,
2013-04-21 05:03:00,34.9,22.1,30.20,SE,135,0.0,0.0,59,0.00,,,0.00,WUHU216HW,2013-04-21 09:03:00,
2013-04-21 05:08:00,34.9,22.5,30.19,SE,135,0.0,0.0,60,0.00,,,0.00,WUHU216HW,2013-04-21 09:08:00,
2013-04-21 05:13:00,34.9,22.5,30.20,SE,135,0.0,0.0,60,0.00,,,0.00,WUHU216HW,2013-04-21 09:13:00,
2013-04-21 05:18:00,34.9,21.6,30.20,SE,135,0.0,0.0,58,0.00,,,0.00,WUHU216HW,2013-04-21 09:18:00,
2013-04-21 05:23:00,34.9,21.6,30.20,SE,135,0.0,0.0,58,0.00,,,0.00,WUHU216HW,2013-04-21 09:23:00,
2013-04-21 05:28:00,34.9,21.6,30.21,SE,135,0.0,0.0,58,0.00,,,0.00,WUHU216HW,2013-04-21 09:28:00,
2013-04-21 05:33:00,34.9,21.6,30.21,SE,135,0.0,0.0,58,0.00,,,0.00,WUHU216HW,2013-04-21 09:33:00,
2013-04-21 05:38:00,34.9,21.6,30.21,SE,135,0.0,0.0,58,0.00,,,0.00,WUHU216HW,2013-04-21 09:38:00,
2013-04-21 05:43:00,34.9,21.6,30.21,SE,135,0.0,0.0,58,0.00,,,0.00,WUHU216HW,2013-04-21 09:43:00,
2013-04-21 05:48:00,34.9,21.6,30.21,SE,135,0.0,0.0,58,0.00,,,0.00,WUHU216HW,2013-04-21 09:48:00,
2013-04-21 05:53:00,34.9,22.1,30.22,SE,135,0.0,0.0,59,0.00,,,0.00,WUHU216HW,2013-04-21 09:53:00,
2013-04-21 05:58:00,35.3,22.4,30.21,SSE,158,0.0,0.0,59,0.00,,,0.00,WUHU216HW,2013-04-21 09:58:00,
2013-04-21 06:03:00,35.6,22.8,30.21,WSW,248,0.0,0.2,59,0.00,,,0.00,WUHU216HW,2013-04-21 10:03:00,
2013-04-21 06:08:00,36.0,23.1,30.22,SSE,158,0.7,0.7,59,0.00,,,0.00,WUHU216HW,2013-04-21 10:08:00,
2013-04-21 06:13:00,36.5,23.6,30.21,SSE,158,0.0,0.7,59,0.00,,,0.00,WUHU216HW,2013-04-21 10:13:00,
2013-04-21 06:18:00,37.1,24.1,30.22,SSE,158,0.0,0.2,59,0.00,,,0.00,WUHU216HW,2013-04-21 10:18:00,
2013-04-21 06:23:00,37.4,24.4,30.21,SSE,158,0.0,0.4,59,0.00,,,0.00,WUHU216HW,2013-04-21 10:23:00,
2013-04-21 06:28:00,37.8,24.8,30.23,SSW,203,0.0,0.4,59,0.00,,,0.00,WUHU216HW,2013-04-21 10:28:00,
2013-04-21 06:33:00,38.2,25.0,30.23,SSW,203,0.0,0.2,59,0.00,,,0.00,WUHU216HW,2013-04-21 10:33:00,
2013-04-21 06:38:00,38.5,25.4,30.24,SSW,203,0.2,0.4,59,0.00,,,0.00,WUHU216HW,2013-04-21 10:38:00,
2013-04-21 06:43:00,38.5,25.4,30.23,SSW,203,0.0,0.4,59,0.00,,,0.00,WUHU216HW,2013-04-21 10:43:00,
2013-04-21 06:48:00,38.7,25.6,30.24,SSW,203,0.0,0.4,59,0.00,,,0.00,WUHU216HW,2013-04-21 10:48:00,
2013-04-21 06:53:00,39.1,25.8,30.24,SSW,203,0.0,0.4,59,0.00,,,0.00,WUHU216HW,2013-04-21 10:53:00,
2013-04-21 06:58:00,39.2,26.0,30.24,SW,225,0.2,0.7,59,0.00,,,0.00,WUHU216HW,2013-04-21 10:58:00,
2013-04-21 07:03:00,39.4,26.2,30.24,SSW,203,0.7,0.9,59,0.00,,,0.00,WUHU216HW,2013-04-21 11:03:00,
2013-04-21 07:08:00,39.6,26.4,30.24,SSW,203,0.0,0.9,59,0.00,,,0.00,WUHU216HW,2013-04-21 11:08:00,
2013-04-21 07:13:00,39.6,26.4,30.25,SSW,203,0.2,0.9,59,0.00,,,0.00,WUHU216HW,2013-04-21 11:13:00,
2013-04-21 07:18:00,39.8,26.1,30.25,SSW,203,0.0,0.9,58,0.00,,,0.00,WUHU216HW,2013-04-21 11:18:00,
2013-04-21 07:23:00,40.0,26.3,30.24,SSW,203,0.0,1.1,58,0.00,,,0.00,WUHU216HW,2013-04-21 11:23:00,
2013-04-21 07:28:00,40.1,26.5,30.25,SW,225,0.2,1.1,58,0.00,,,0.00,WUHU216HW,2013-04-21 11:28:00,
2013-04-21 07:33:00,40.3,26.2,30.25,SW,225,0.0,0.9,57,0.00,,,0.00,WUHU216HW,2013-04-21 11:33:00,
2013-04-21 07:38:00,40.5,26.4,30.25,SSW,203,0.7,0.7,57,0.00,,,0.00,WUHU216HW,2013-04-21 11:38:00,
2013-04-21 07:43:00,40.5,26.4,30.25,SSE,158,0.2,0.7,57,0.00,,,0.00,WUHU216HW,2013-04-21 11:43:00,
2013-04-21 07:48:00,40.5,26.4,30.26,SSW,203,0.7,0.7,57,0.00,,,0.00,WUHU216HW,2013-04-21 11:48:00,
2013-04-21 07:53:00,40.7,26.6,30.26,South,180,0.0,0.9,57,0.00,,,0.00,WUHU216HW,2013-04-21 11:53:00,
2013-04-21 07:58:00,40.7,26.1,30.26,SSW,203,0.4,1.1,56,0.00,,,0.00,WUHU216HW,2013-04-21 11:58:00,
2013-04-21 08:03:00,40.7,26.1,30.26,SSW,203,1.1,1.1,56,0.00,,,0.00,WUHU216HW,2013-04-21 12:03:00,
2013-04-21 08:08:00,40.9,26.3,30.26,SSW,203,0.2,1.1,56,0.00,,,0.00,WUHU216HW,2013-04-21 12:08:00,
2013-04-21 08:13:00,41.0,26.5,30.28,South,180,0.4,0.7,56,0.00,,,0.00,WUHU216HW,2013-04-21 12:13:00,
2013-04-21 08:18:00,41.0,26.5,30.26,SSE,158,0.9,1.1,56,0.00,,,0.00,WUHU216HW,2013-04-21 12:18:00,
2013-04-21 08:23:00,41.0,26.0,30.27,SSW,203,0.4,1.1,55,0.00,,,0.00,WUHU216HW,2013-04-21 12:23:00,
2013-04-21 08:28:00,41.2,26.2,30.26,SW,225,0.4,1.1,55,0.00,,,0.00,WUHU216HW,2013-04-21 12:28:00,
2013-04-21 08:33:00,41.4,26.4,30.27,SW,225,0.0,0.4,55,0.00,,,0.00,WUHU216HW,2013-04-21 12:33:00,
2013-04-21 08:38:00,41.8,26.7,30.27,East,90,0.0,1.1,55,0.00,,,0.00,WUHU216HW,2013-04-21 12:38:00,
2013-04-21 08:43:00,41.8,26.3,30.27,SW,225,0.9,1.3,54,0.00,,,0.00,WUHU216HW,2013-04-21 12:43:00,
2013-04-21 08:48:00,41.9,26.0,30.28,West,270,0.7,1.3,53,0.00,,,0.00,WUHU216HW,2013-04-21 12:48:00,
2013-04-21 08:54:00,41.8,25.8,30.28,SSE,158,0.7,1.8,53,0.00,,,0.00,WUHU216HW,2013-04-21 12:54:00,
2013-04-21 08:59:00,41.8,25.8,30.27,SSE,158,0.4,1.8,53,0.00,,,0.00,WUHU216HW,2013-04-21 12:59:00,
2013-04-21 09:04:00,41.9,26.0,30.27,West,270,0.7,1.8,53,0.00,,,0.00,WUHU216HW,2013-04-21 13:04:00,
2013-04-21 09:09:00,42.1,26.2,30.27,SW,225,0.4,1.3,53,0.00,,,0.00,WUHU216HW,2013-04-21 13:09:00,
2013-04-21 09:14:00,42.7,26.6,30.27,South,180,0.7,1.8,53,0.00,,,0.00,WUHU216HW,2013-04-21 13:14:00,
2013-04-21 09:19:00,43.0,27.0,30.26,SE,135,1.1,1.8,53,0.00,,,0.00,WUHU216HW,2013-04-21 13:19:00,
2013-04-21 09:24:00,43.4,27.4,30.27,SSW,203,0.4,1.6,53,0.00,,,0.00,WUHU216HW,2013-04-21 13:24:00,
2013-04-21 09:29:00,43.6,27.6,30.28,SE,135,0.0,1.6,53,0.00,,,0.00,WUHU216HW,2013-04-21 13:29:00,
2013-04-21 09:34:00,43.9,27.9,30.28,SSE,158,0.9,3.8,53,0.00,,,0.00,WUHU216HW,2013-04-21 13:34:00,
2013-04-21 09:39:00,44.1,27.5,30.28,SE,135,1.3,3.8,52,0.00,,,0.00,WUHU216HW,2013-04-21 13:39:00,
2013-04-21 09:44:00,44.3,27.7,30.29,South,180,0.7,1.6,52,0.00,,,0.00,WUHU216HW,2013-04-21 13:44:00,
2013-04-21 09:49:00,44.5,27.5,30.28,SSW,203,0.4,1.6,51,0.00,,,0.00,WUHU216HW,2013-04-21 13:49:00,
2013-04-21 09:54:00,44.5,27.5,30.28,South,180,0.4,1.6,51,0.00,,,0.00,WUHU216HW,2013-04-21 13:54:00,
2013-04-21 09:59:00,44.5,27.5,30.28,WSW,248,0.2,1.6,51,0.00,,,0.00,WUHU216HW,2013-04-21 13:59:00,
2013-04-21 10:04:00,44.6,27.6,30.28,SSE,158,0.4,1.1,51,0.00,,,0.00,WUHU216HW,2013-04-21 14:04:00,
2013-04-21 10:09:00,44.8,27.8,30.29,SE,135,1.8,1.8,51,0.00,,,0.00,WUHU216HW,2013-04-21 14:09:00,
2013-04-21 10:14:00,45.0,28.0,30.28,South,180,0.2,1.8,51,0.00,,,0.00,WUHU216HW,2013-04-21 14:14:00,
2013-04-21 10:19:00,45.2,28.1,30.29,SSE,158,1.1,1.1,51,0.00,,,0.00,WUHU216HW,2013-04-21 14:19:00,
2013-04-21 10:24:00,45.2,27.6,30.30,SW,225,0.2,1.6,50,0.00,,,0.00,WUHU216HW,2013-04-21 14:24:00,
2013-04-21 10:29:00,45.0,27.6,30.29,SW,225,0.2,1.8,50,0.00,,,0.00,WUHU216HW,2013-04-21 14:29:00,
2013-04-21 10:34:00,45.2,27.6,30.29,SE,135,0.4,1.8,50,0.00,,,0.00,WUHU216HW,2013-04-21 14:34:00,
2013-04-21 10:39:00,45.4,28.3,30.29,SSW,203,0.2,0.7,51,0.00,,,0.00,WUHU216HW,2013-04-21 14:39:00,
2013-04-21 10:44:00,45.5,28.0,30.29,SSW,203,0.4,1.6,50,0.00,,,0.00,WUHU216HW,2013-04-21 14:44:00,
2013-04-21 10:49:00,45.9,28.4,30.29,SW,225,0.4,1.6,50,0.00,,,0.00,WUHU216HW,2013-04-21 14:49:00,
2013-04-21 10:54:00,46.1,28.4,30.29,SSW,203,0.0,1.3,50,0.00,,,0.00,WUHU216HW,2013-04-21 14:54:00,
2013-04-21 10:59:00,46.4,28.8,30.29,South,180,0.4,1.3,50,0.00,,,0.00,WUHU216HW,2013-04-21 14:59:00,
2013-04-21 11:04:00,46.4,28.3,30.29,ESE,113,0.9,1.1,49,0.00,,,0.00,WUHU216HW,2013-04-21 15:04:00,
2013-04-21 11:09:00,46.6,29.0,30.29,WSW,248,0.7,1.1,50,0.00,,,0.00,WUHU216HW,2013-04-21 15:09:00,
2013-04-21 11:14:00,46.6,29.0,30.29,SSW,203,0.7,1.3,50,0.00,,,0.00,WUHU216HW,2013-04-21 15:14:00,
2013-04-21 11:19:00,46.8,29.2,30.30,ESE,113,0.4,1.3,50,0.00,,,0.00,WUHU216HW,2013-04-21 15:19:00,
2013-04-21 11:24:00,47.0,29.3,30.29,South,180,0.4,1.8,50,0.00,,,0.00,WUHU216HW,2013-04-21 15:24:00,
2013-04-21 11:29:00,47.3,29.6,30.29,SSE,158,0.4,1.8,50,0.00,,,0.00,WUHU216HW,2013-04-21 15:29:00,
2013-04-21 11:34:00,47.7,30.0,30.29,SSE,158,0.4,1.1,50,0.00,,,0.00,WUHU216HW,2013-04-21 15:34:00,
2013-04-21 11:39:00,48.2,30.4,30.29,SE,135,0.4,1.1,50,0.00,,,0.00,WUHU216HW,2013-04-21 15:39:00,
2013-04-21 11:44:00,49.0,31.1,30.29,SE,135,0.7,1.1,50,0.00,,,0.00,WUHU216HW,2013-04-21 15:44:00,
2013-04-21 11:49:00,49.5,31.2,30.29,SE,135,0.9,1.1,49,0.00,,,0.00,WUHU216HW,2013-04-21 15:49:00,
2013-04-21 11:54:00,50.0,31.7,30.28,South,180,0.2,1.1,49,0.00,,,0.00,WUHU216HW,2013-04-21 15:54:00,
2013-04-21 11:59:00,50.0,31.2,30.29,SE,135,0.7,1.8,48,0.00,,,0.00,WUHU216HW,2013-04-21 15:59:00,
2013-04-21 12:04:00,50.0,31.2,30.28,West,270,0.4,1.8,48,0.00,,,0.00,WUHU216HW,2013-04-21 16:04:00,
2013-04-21 12:09:00,50.2,30.7,30.28,SE,135,0.0,1.8,47,0.00,,,0.00,WUHU216HW,2013-04-21 16:09:00,
2013-04-21 12:14:00,50.6,31.6,30.29,SSE,158,0.4,1.8,48,0.00,,,0.00,WUHU216HW,2013-04-21 16:14:00,
2013-04-21 12:19:00,50.8,31.8,30.28,ESE,113,0.4,1.3,48,0.00,,,0.00,WUHU216HW,2013-04-21 16:19:00,
2013-04-21 12:24:00,50.9,31.3,30.28,SW,225,0.4,1.3,47,0.00,,,0.00,WUHU216HW,2013-04-21 16:24:00,
2013-04-21 12:29:00,51.3,31.7,30.28,SSW,203,0.0,0.7,47,0.00,,,0.00,WUHU216HW,2013-04-21 16:29:00,
2013-04-21 12:34:00,51.5,31.9,30.28,SSW,203,0.4,0.7,47,0.00,,,0.00,WUHU216HW,2013-04-21 16:34:00,
2013-04-21 12:39:00,52.0,30.7,30.29,SE,135,2.0,2.0,44,0.00,,,0.00,WUHU216HW,2013-04-21 16:39:00,
2013-04-21 12:44:00,52.0,31.2,30.28,SSW,203,1.1,2.2,45,0.00,,,0.00,WUHU216HW,2013-04-21 16:44:00,
2013-04-21 12:49:00,52.0,30.7,30.27,SSE,158,0.4,2.5,44,0.00,,,0.00,WUHU216HW,2013-04-21 16:49:00,
2013-04-21 12:54:00,52.2,31.4,30.27,SE,135,1.6,2.5,45,0.00,,,0.00,WUHU216HW,2013-04-21 16:54:00,
2013-04-21 12:59:00,52.6,32.2,30.26,SE,135,1.1,1.8,46,0.00,,,0.00,WUHU216HW,2013-04-21 16:59:00,
2013-04-21 13:04:00,53.1,32.8,30.27,WSW,248,0.4,1.8,46,0.00,,,0.00,WUHU216HW,2013-04-21 17:04:00,
2013-04-21 13:09:00,53.3,32.3,30.26,SW,225,0.2,2.5,45,0.00,,,0.00,WUHU216HW,2013-04-21 17:09:00,
2013-04-21 13:14:00,53.6,32.7,30.27,WSW,248,0.2,2.5,45,0.00,,,0.00,WUHU216HW,2013-04-21 17:14:00,
2013-04-21 13:19:00,53.6,32.7,30.28,SSE,158,0.4,2.2,45,0.00,,,0.00,WUHU216HW,2013-04-21 17:19:00,
2013-04-21 13:24:00,54.2,32.6,30.26,NW,315,0.4,2.2,44,0.00,,,0.00,WUHU216HW,2013-04-21 17:24:00,
2013-04-21 13:29:00,54.0,30.3,30.25,SW,225,1.1,2.5,40,0.00,,,0.00,WUHU216HW,2013-04-21 17:29:00,
2013-04-21 13:34:00,54.4,32.8,30.26,SSW,203,0.0,2.5,44,0.00,,,0.00,WUHU216HW,2013-04-21 17:34:00,
2013-04-21 13:39:00,55.1,33.4,30.26,South,180,0.7,0.7,44,0.00,,,0.00,WUHU216HW,2013-04-21 17:39:00,
2013-04-21 13:44:00,55.4,33.2,30.25,SSW,203,0.0,1.1,43,0.00,,,0.00,WUHU216HW,2013-04-21 17:44:00,
2013-04-21 13:49:00,55.6,33.3,30.25,SE,135,0.9,1.3,43,0.00,,,0.00,WUHU216HW,2013-04-21 17:49:00,
2013-04-21 13:54:00,56.2,34.4,30.26,SSW,203,0.4,1.3,44,0.00,,,0.00,WUHU216HW,2013-04-21 17:54:00,
2013-04-21 13:59:00,56.5,34.2,30.25,SW,225,0.0,1.1,43,0.00,,,0.00,WUHU216HW,2013-04-21 17:59:00,
2013-04-21 14:04:00,56.9,34.5,30.24,SE,135,0.7,1.1,43,0.00,,,0.00,WUHU216HW,2013-04-21 18:04:00,
2013-04-21 14:09:00,57.2,34.8,30.25,SSE,158,0.4,1.1,43,0.00,,,0.00,WUHU216HW,2013-04-21 18:09:00,
2013-04-21 14:14:00,57.6,34.6,30.26,SE,135,1.1,1.1,42,0.00,,,0.00,WUHU216HW,2013-04-21 18:14:00,
2013-04-21 14:19:00,57.8,32.2,30.25,SSW,203,1.8,2.7,38,0.00,,,0.00,WUHU216HW,2013-04-21 18:19:00,
2013-04-21 14:24:00,57.1,32.2,30.25,SSE,158,1.1,2.7,39,0.00,,,0.00,WUHU216HW,2013-04-21 18:24:00,
2013-04-21 14:29:00,56.9,33.4,30.25,SW,225,0.2,1.3,41,0.00,,,0.00,WUHU216HW,2013-04-21 18:29:00,
2013-04-21 14:34:00,57.2,34.3,30.25,NW,315,1.8,1.8,42,0.00,,,0.00,WUHU216HW,2013-04-21 18:34:00,
2013-04-21 14:39:00,56.3,31.6,30.25,SE,135,3.6,3.6,39,0.00,,,0.00,WUHU216HW,2013-04-21 18:39:00,
2013-04-21 14:44:00,56.3,32.9,30.25,WSW,248,0.2,3.6,41,0.00,,,0.00,WUHU216HW,2013-04-21 18:44:00,
2013-04-21 14:49:00,57.8,34.7,30.25,SW,225,0.2,1.8,42,0.00,,,0.00,WUHU216HW,2013-04-21 18:49:00,
2013-04-21 14:54:00,58.5,34.8,30.24,NW,315,0.0,1.6,41,0.00,,,0.00,WUHU216HW,2013-04-21 18:54:00,
2013-04-21 14:59:00,58.7,35.0,30.25,SSW,203,0.4,2.7,41,0.00,,,0.00,WUHU216HW,2013-04-21 18:59:00,
2013-04-21 15:04:00,58.7,35.0,30.26,SE,135,0.4,2.7,41,0.00,,,0.00,WUHU216HW,2013-04-21 19:04:00,
2013-04-21 15:09:00,59.8,36.0,30.25,SSW,203,0.2,1.3,41,0.00,,,0.00,WUHU216HW,2013-04-21 19:09:00,
2013-04-21 15:14:00,60.5,36.0,30.24,SSW,203,0.7,1.6,40,0.00,,,0.00,WUHU216HW,2013-04-21 19:14:00,
2013-04-21 15:19:00,61.2,36.7,30.23,WSW,248,0.0,1.8,40,0.00,,,0.00,WUHU216HW,2013-04-21 19:19:00,
2013-04-21 15:24:00,63.0,38.4,30.25,WSW,248,0.7,1.8,40,0.00,,,0.00,WUHU216HW,2013-04-21 19:24:00,
2013-04-21 15:29:00,64.1,37.8,30.24,SE,135,0.9,2.9,38,0.00,,,0.00,WUHU216HW,2013-04-21 19:29:00,
2013-04-21 15:34:00,63.0,34.0,30.24,SSE,158,2.9,3.4,34,0.00,,,0.00,WUHU216HW,2013-04-21 19:34:00,
2013-04-21 15:39:00,62.6,36.5,30.24,SSE,158,1.1,3.4,38,0.00,,,0.00,WUHU216HW,2013-04-21 19:39:00,
2013-04-21 15:44:00,63.5,37.4,30.24,SSW,203,0.4,1.8,38,0.00,,,0.00,WUHU216HW,2013-04-21 19:44:00,
2013-04-21 15:49:00,64.1,37.1,30.24,SSE,158,1.1,1.8,37,0.00,,,0.00,WUHU216HW,2013-04-21 19:49:00,
2013-04-21 15:54:00,63.9,37.0,30.23,SW,225,0.4,1.8,37,0.00,,,0.00,WUHU216HW,2013-04-21 19:54:00,
2013-04-21 15:59:00,63.0,35.5,30.23,SSE,158,0.9,1.8,36,0.00,,,0.00,WUHU216HW,2013-04-21 19:59:00,
2013-04-21 16:04:00,61.4,34.7,30.23,ENE,68,0.9,1.8,37,0.00,,,0.00,WUHU216HW,2013-04-21 20:04:00,
2013-04-21 16:09:00,60.7,34.0,30.23,SSW,203,1.1,1.3,37,0.00,,,0.00,WUHU216HW,2013-04-21 20:09:00,
2013-04-21 16:14:00,59.8,33.9,30.19,SSE,158,1.1,1.3,38,0.00,,,0.00,WUHU216HW,2013-04-21 20:14:00,
2013-04-21 16:19:00,59.4,34.4,30.19,SW,225,0.4,1.1,39,0.00,,,0.00,WUHU216HW,2013-04-21 20:19:00,
2013-04-21 16:24:00,59.6,34.6,30.18,WNW,293,0.9,0.9,39,0.00,,,0.00,WUHU216HW,2013-04-21 20:24:00,
2013-04-21 16:29:00,58.9,33.8,30.19,SSW,203,0.2,0.9,39,0.00,,,0.00,WUHU216HW,2013-04-21 20:29:00,
2013-04-21 16:34:00,59.0,34.7,30.19,SE,135,0.2,0.9,40,0.00,,,0.00,WUHU216HW,2013-04-21 20:34:00,
2013-04-21 16:39:00,59.0,34.0,30.18,SSW,203,0.4,1.1,39,0.00,,,0.00,WUHU216HW,2013-04-21 20:39:00,
2013-04-21 16:44:00,58.9,34.6,30.18,SE,135,0.4,2.5,40,0.00,,,0.00,WUHU216HW,2013-04-21 20:44:00,
2013-04-21 16:49:00,59.0,34.0,30.18,SSE,158,0.4,2.5,39,0.00,,,0.00,WUHU216HW,2013-04-21 20:49:00,
2013-04-21 16:54:00,59.0,34.7,30.18,SSW,203,0.9,2.5,40,0.00,,,0.00,WUHU216HW,2013-04-21 20:54:00,
2013-04-21 16:59:00,58.7,33.8,30.18,SE,135,2.5,2.5,39,0.00,,,0.00,WUHU216HW,2013-04-21 20:59:00,
2013-04-21 17:04:00,58.3,34.1,30.18,SE,135,0.9,2.5,40,0.00,,,0.00,WUHU216HW,2013-04-21 21:04:00,
2013-04-21 17:09:00,58.7,34.4,30.19,SSW,203,1.1,2.2,40,0.00,,,0.00,WUHU216HW,2013-04-21 21:09:00,
2013-04-21 17:14:00,59.4,35.1,30.18,East,90,0.4,1.8,40,0.00,,,0.00,WUHU216HW,2013-04-21 21:14:00,
2013-04-21 17:19:00,60.3,35.2,30.20,SE,135,0.9,1.8,39,0.00,,,0.00,WUHU216HW,2013-04-21 21:19:00,
2013-04-21 17:24:00,60.3,34.5,30.19,WSW,248,1.1,2.7,38,0.00,,,0.00,WUHU216HW,2013-04-21 21:24:00,
2013-04-21 17:29:00,60.8,34.9,30.18,SE,135,3.1,3.1,38,0.00,,,0.00,WUHU216HW,2013-04-21 21:29:00,
2013-04-21 17:34:00,60.7,34.0,30.18,SE,135,1.1,3.1,37,0.00,,,0.00,WUHU216HW,2013-04-21 21:34:00,
2013-04-21 17:39:00,60.3,34.5,30.18,SE,135,0.0,3.4,38,0.00,,,0.00,WUHU216HW,2013-04-21 21:39:00,
2013-04-21 17:44:00,61.4,35.4,30.18,WSW,248,0.4,3.4,38,0.00,,,0.00,WUHU216HW,2013-04-21 21:44:00,
2013-04-21 17:49:00,61.4,35.4,30.18,SSW,203,0.4,1.3,38,0.00,,,0.00,WUHU216HW,2013-04-21 21:49:00,
2013-04-21 17:54:00,61.0,35.1,30.19,SE,135,1.1,1.3,38,0.00,,,0.00,WUHU216HW,2013-04-21 21:54:00,
2013-04-21 17:59:00,61.2,35.3,30.18,SSW,203,0.0,1.3,38,0.00,,,0.00,WUHU216HW,2013-04-21 21:59:00,
2013-04-21 18:04:00,61.7,35.7,30.18,SE,135,0.0,1.6,38,0.00,,,0.00,WUHU216HW,2013-04-21 22:04:00,
2013-04-21 18:09:00,61.6,35.6,30.18,SE,135,0.9,1.6,38,0.00,,,0.00,WUHU216HW,2013-04-21 22:09:00,
2013-04-21 18:14:00,60.8,34.9,30.18,South,180,0.0,0.9,38,0.00,,,0.00,WUHU216HW,2013-04-21 22:14:00,
2013-04-21 18:19:00,59.9,34.8,30.19,SW,225,0.4,0.9,39,0.00,,,0.00,WUHU216HW,2013-04-21 22:19:00,
2013-04-21 18:24:00,59.0,34.0,30.19,SE,135,1.1,1.1,39,0.00,,,0.00,WUHU216HW,2013-04-21 22:24:00,
2013-04-21 18:29:00,58.7,34.4,30.19,SE,135,0.4,1.1,40,0.00,,,0.00,WUHU216HW,2013-04-21 22:29:00,
2013-04-21 18:34:00,59.2,34.9,30.18,SE,135,0.7,1.6,40,0.00,,,0.00,WUHU216HW,2013-04-21 22:34:00,
2013-04-21 18:39:00,59.9,35.6,30.19,SSE,158,0.7,1.6,40,0.00,,,0.00,WUHU216HW,2013-04-21 22:39:00,
2013-04-21 18:44:00,59.8,35.4,30.18,South,180,0.4,1.3,40,0.00,,,0.00,WUHU216HW,2013-04-21 22:44:00,
2013-04-21 18:49:00,59.4,35.1,30.20,SSE,158,0.9,0.9,40,0.00,,,0.00,WUHU216HW,2013-04-21 22:49:00,
2013-04-21 18:54:00,58.7,34.4,30.19,SSE,158,0.4,0.9,40,0.00,,,0.00,WUHU216HW,2013-04-21 22:54:00,
2013-04-21 18:59:00,57.6,33.5,30.19,West,270,0.4,0.4,40,0.00,,,0.00,WUHU216HW,2013-04-21 22:59:00,
2013-04-21 19:04:00,57.1,33.6,30.19,SE,135,0.4,1.6,41,0.00,,,0.00,WUHU216HW,2013-04-21 23:04:00,
2013-04-21 19:09:00,56.3,32.9,30.19,ESE,113,0.2,1.6,41,0.00,,,0.00,WUHU216HW,2013-04-21 23:09:00,
2013-04-21 19:14:00,55.6,32.8,30.20,SW,225,1.3,1.3,42,0.00,,,0.00,WUHU216HW,2013-04-21 23:14:00,
2013-04-21 19:19:00,54.7,32.5,30.20,SSE,158,0.7,1.8,43,0.00,,,0.00,WUHU216HW,2013-04-21 23:19:00,
2013-04-21 19:24:00,54.4,32.2,30.24,SSW,203,0.4,1.8,43,0.00,,,0.00,WUHU216HW,2013-04-21 23:24:00,
2013-04-21 19:29:00,53.6,32.1,30.24,South,180,0.4,2.5,44,0.00,,,0.00,WUHU216HW,2013-04-21 23:29:00,
2013-04-21 19:34:00,53.3,31.8,30.25,ESE,113,0.7,2.5,44,0.00,,,0.00,WUHU216HW,2013-04-21 23:34:00,
2013-04-21 19:39:00,53.3,32.3,30.25,SW,225,0.0,1.3,45,0.00,,,0.00,WUHU216HW,2013-04-21 23:39:00,
2013-04-21 19:44:00,53.1,32.2,30.25,SSW,203,0.0,0.9,45,0.00,,,0.00,WUHU216HW,2013-04-21 23:44:00,
2013-04-21 19:49:00,52.7,31.9,30.25,SW,225,0.4,0.9,45,0.00,,,0.00,WUHU216HW,2013-04-21 23:49:00,
2013-04-21 19:54:00,52.0,30.7,30.25,SSW,203,0.0,0.4,44,0.00,,,0.00,WUHU216HW,2013-04-21 23:54:00,
2013-04-21 19:59:00,51.5,30.7,30.25,South,180,0.0,0.4,45,0.00,,,0.00,WUHU216HW,2013-04-21 23:59:00,
2013-04-21 20:04:00,50.8,30.6,30.25,SW,225,0.7,2.5,46,0.00,,,0.00,WUHU216HW,2013-04-22 00:04:00,
2013-04-21 20:09:00,50.4,30.3,30.26,SW,225,0.0,2.5,46,0.00,,,0.00,WUHU216HW,2013-04-22 00:09:00,
2013-04-21 20:14:00,50.0,30.5,30.25,SW,225,0.0,0.4,47,0.00,,,0.00,WUHU216HW,2013-04-22 00:14:00,
2013-04-21 20:19:00,49.7,30.3,30.26,SW,225,0.0,0.0,47,0.00,,,0.00,WUHU216HW,2013-04-22 00:19:00,
2013-04-21 20:24:00,49.3,30.4,30.26,SSW,203,0.0,0.4,48,0.00,,,0.00,WUHU216HW,2013-04-22 00:24:00,
2013-04-21 20:29:00,49.1,30.8,30.27,SSE,158,0.0,0.4,49,0.00,,,0.00,WUHU216HW,2013-04-22 00:29:00,
2013-04-21 20:34:00,48.8,30.4,30.27,SSE,158,0.0,0.4,49,0.00,,,0.00,WUHU216HW,2013-04-22 00:34:00,
2013-04-21 20:39:00,48.6,30.8,30.27,SSE,158,0.0,0.0,50,0.00,,,0.00,WUHU216HW,2013-04-22 00:39:00,
2013-04-21 20:44:00,48.4,31.1,30.27,SSE,158,0.0,0.0,51,0.00,,,0.00,WUHU216HW,2013-04-22 00:44:00,
2013-04-21 20:49:00,48.2,30.9,30.27,SSE,158,0.0,0.0,51,0.00,,,0.00,WUHU216HW,2013-04-22 00:49:00,
2013-04-21 20:54:00,47.9,30.6,30.27,South,180,0.0,0.0,51,0.00,,,0.00,WUHU216HW,2013-04-22 00:54:00,
2013-04-21 20:59:00,47.9,31.1,30.28,SE,135,0.0,0.0,52,0.00,,,0.00,WUHU216HW,2013-04-22 00:59:00,
2013-04-21 21:04:00,47.5,30.7,30.28,SE,135,0.0,0.0,52,0.00,,,0.00,WUHU216HW,2013-04-22 01:04:00,
2013-04-21 21:09:00,47.5,31.1,30.28,SSE,158,0.0,0.0,53,0.00,,,0.00,WUHU216HW,2013-04-22 01:09:00,
2013-04-21 21:14:00,47.2,30.8,30.27,SE,135,0.0,0.2,53,0.00,,,0.00,WUHU216HW,2013-04-22 01:14:00,
2013-04-21 21:19:00,47.2,31.3,30.28,SE,135,0.0,0.4,54,0.00,,,0.00,WUHU216HW,2013-04-22 01:19:00,
2013-04-21 21:24:00,47.0,31.6,30.28,SSW,203,0.0,0.9,55,0.00,,,0.00,WUHU216HW,2013-04-22 01:24:00,
2013-04-21 21:29:00,46.8,31.4,30.28,SSW,203,0.0,0.9,55,0.00,,,0.00,WUHU216HW,2013-04-22 01:29:00,
2013-04-21 21:34:00,46.6,31.2,30.28,SSW,203,0.4,0.4,55,0.00,,,0.00,WUHU216HW,2013-04-22 01:34:00,
2013-04-21 21:39:00,46.4,31.5,30.29,SE,135,0.4,0.7,56,0.00,,,0.00,WUHU216HW,2013-04-22 01:39:00,
2013-04-21 21:44:00,46.4,31.5,30.28,SSE,158,0.4,0.7,56,0.00,,,0.00,WUHU216HW,2013-04-22 01:44:00,
2013-04-21 21:49:00,46.3,31.3,30.28,South,180,0.0,0.4,56,0.00,,,0.00,WUHU216HW,2013-04-22 01:49:00,
2013-04-21 21:54:00,46.3,31.8,30.28,SE,135,0.0,0.7,57,0.00,,,0.00,WUHU216HW,2013-04-22 01:54:00,
2013-04-21 21:59:00,46.1,31.6,30.28,South,180,0.0,0.7,57,0.00,,,0.00,WUHU216HW,2013-04-22 01:59:00,
2013-04-21 22:04:00,45.9,31.5,30.28,SSW,203,0.0,1.1,57,0.00,,,0.00,WUHU216HW,2013-04-22 02:04:00,
2013-04-21 22:09:00,45.9,31.5,30.30,SSE,158,0.4,1.1,57,0.00,,,0.00,WUHU216HW,2013-04-22 02:09:00,
2013-04-21 22:14:00,45.7,31.3,30.29,South,180,0.0,0.9,57,0.00,,,0.00,WUHU216HW,2013-04-22 02:14:00,
2013-04-21 22:19:00,45.7,31.3,30.29,South,180,0.0,0.9,57,0.00,,,0.00,WUHU216HW,2013-04-22 02:19:00,
2013-04-21 22:24:00,45.7,31.3,30.28,SSW,203,0.0,0.9,57,0.00,,,0.00,WUHU216HW,2013-04-22 02:24:00,
2013-04-21 22:29:00,45.5,31.1,30.28,SE,135,0.0,0.7,57,0.00,,,0.00,WUHU216HW,2013-04-22 02:29:00,
2013-04-21 22:34:00,45.4,31.0,30.29,South,180,0.2,0.4,57,0.00,,,0.00,WUHU216HW,2013-04-22 02:34:00,
2013-04-21 22:39:00,45.4,31.4,30.30,SE,135,1.1,1.1,58,0.00,,,0.00,WUHU216HW,2013-04-22 02:39:00,
2013-04-21 22:44:00,45.4,31.4,30.29,SSW,203,0.4,1.1,58,0.00,,,0.00,WUHU216HW,2013-04-22 02:44:00,
2013-04-21 22:49:00,45.2,31.2,30.29,South,180,0.4,0.7,58,0.00,,,0.00,WUHU216HW,2013-04-22 02:49:00,
2013-04-21 22:54:00,45.2,31.2,30.28,SSW,203,0.4,0.7,58,0.00,,,0.00,WUHU216HW,2013-04-22 02:54:00,
2013-04-21 22:59:00,45.2,31.2,30.29,SSW,203,0.0,0.4,58,0.00,,,0.00,WUHU216HW,2013-04-22 02:59:00,
2013-04-21 23:04:00,45.2,31.2,30.28,SE,135,0.2,1.1,58,0.00,,,0.00,WUHU216HW,2013-04-22 03:04:00,
2013-04-21 23:09:00,45.2,31.2,30.28,South,180,0.4,1.1,58,0.00,,,0.00,WUHU216HW,2013-04-22 03:09:00,
2013-04-21 23:14:00,45.2,31.2,30.28,SSE,158,0.4,0.4,58,0.00,,,0.00,WUHU216HW,2013-04-22 03:14:00,
2013-04-21 23:19:00,45.2,31.2,30.28,SSW,203,0.0,0.7,58,0.00,,,0.00,WUHU216HW,2013-04-22 03:19:00,
2013-04-21 23:24:00,45.0,31.2,30.27,SSW,203,0.0,0.7,58,0.00,,,0.00,WUHU216HW,2013-04-22 03:24:00,
2013-04-21 23:29:00,45.0,31.2,30.28,SE,135,0.0,0.4,58,0.00,,,0.00,WUHU216HW,2013-04-22 03:29:00,
2013-04-21 23:34:00,45.0,31.2,30.29,SW,225,0.0,0.9,58,0.00,,,0.00,WUHU216HW,2013-04-22 03:34:00,
2013-04-21 23:39:00,45.0,31.2,30.26,SE,135,1.1,1.1,58,0.00,,,0.00,WUHU216HW,2013-04-22 03:39:00,
2013-04-21 23:44:00,45.0,31.2,30.27,SE,135,0.0,1.1,58,0.00,,,0.00,WUHU216HW,2013-04-22 03:44:00,
2013-04-21 23:49:00,45.0,31.2,30.27,SE,135,0.0,0.4,58,0.00,,,0.00,WUHU216HW,2013-04-22 03:49:00,
2013-04-21 23:54:00,45.0,31.2,30.26,SE,135,0.0,0.4,58,0.00,,,0.00,WUHU216HW,2013-04-22 03:54:00,
2013-04-21 23:59:00,44.8,31.4,30.27,SE,135,0.0,0.7,59,0.00,,,0.00,WUHU216HW,2013-04-22 03:59:00,